Weather History for Paducah, KY

Change the Weather History Date:

Thursday, April 3, 2014

  Actual Average Record
Temperature  
Mean Temperature 70 °F 54 °F  
Max Temperature 78 °F 65 °F 84 °F (1986)
Min Temperature 61 °F 43 °F 24 °F (1987)
Degree Days  
Heating Degree Days 0 12  
Month to date heating degree days 0 36  
Since 1 July heating degree days 4301 3855  
Cooling Degree Days 5 1  
Month to date cooling degree days 9 3  
Year to date cooling degree days 9 10  
Growing Degree Days 22 (Base 50)    
Moisture  
Dew Point 64 °F    
Average Humidity 76    
Maximum Humidity 87    
Minimum Humidity 64    
Precipitation  
Precipitation 0.21 in 0.14 in 3.51 in (2008)
Month to date precipitation 1.16 0.44  
Year to date precipitation 9.99 11.96  
Snow  
Snow 0.00 in 0.00 in - ()
Month to date snowfall 0.0 0.0  
Since 1 July snowfall 18.5 9.1  
Snow Depth 0.00 in    
Sea Level Pressure  
Sea Level Pressure 29.76 in    
Wind  
Wind Speed 10 mph (SSW)    
Max Wind Speed 31 mph    
Max Gust Speed 39 mph    
Visibility 10 miles    
Events Thunderstorm    
T = Trace of Precipitation, MM = Missing Value Source: NWS Daily Summary

Daily Weather History Graph

Daily Weather History Graph

Search for Another Location

Airport:

Trip Planner

Search our weather history database for the weather conditions in past years. The results will help you decide how hot, cold, wet, or windy it might be!

Date:

Astronomy

Apr. 03, 2014 Rise Set
Actual Time 6:37 AM CDT 7:19 PM CDT
Civil Twilight 6:11 AM CDT 7:45 PM CDT
Nautical Twilight 5:40 AM CDT 8:16 PM CDT
Astronomical Twilight 5:08 AM CDT 8:48 PM CDT
Moon 9:11 AM CDT (4/3) 11:33 PM CDT (4/3)
Length of Visible Light 13h 34m
Length of Day
12h 41m
Waxing Crescent, 17% of the Moon is Illuminated
Apr 3
Waxing Crescent
Apr 7
First Quarter
Apr 15
Full
Apr 22
Last Quarter
Apr 29
New

Hourly Weather History & Observations

Time (CDT) Temp. Dew Point Humidity Pressure Visibility Wind Dir Wind Speed Gust Speed Precip Events Conditions
12:53 AM 66.0 °F 63.0 °F 90% 29.87 in 10.0 mi SSE 9.2 mph - N/A   Overcast
1:53 AM 66.9 °F 63.0 °F 87% 29.86 in 10.0 mi South 6.9 mph - N/A   Scattered Clouds
2:53 AM 66.9 °F 62.1 °F 84% 29.83 in 10.0 mi SSE 9.2 mph - N/A   Mostly Cloudy
3:53 AM 66.9 °F 62.1 °F 84% 29.80 in 10.0 mi SSE 10.4 mph - N/A   Mostly Cloudy
4:53 AM 68.0 °F 62.1 °F 81% 29.80 in 10.0 mi SSE 9.2 mph - N/A   Mostly Cloudy
5:53 AM 68.0 °F 62.1 °F 81% 29.78 in 10.0 mi SSE 11.5 mph - N/A   Mostly Cloudy
6:21 AM 68.0 °F 61.0 °F 78% 29.80 in 10.0 mi South 9.2 mph - N/A   Scattered Clouds
6:53 AM 68.0 °F 61.0 °F 78% 29.80 in 10.0 mi SSW 6.9 mph - N/A   Mostly Cloudy
7:13 AM 68.0 °F 61.0 °F 78% 29.79 in 10.0 mi South 11.5 mph 20.7 mph N/A   Mostly Cloudy
7:53 AM 69.1 °F 62.1 °F 78% 29.78 in 10.0 mi South 12.7 mph 21.9 mph N/A   Overcast
8:17 AM 69.1 °F 62.1 °F 78% 29.78 in 10.0 mi South 11.5 mph 21.9 mph N/A   Overcast
8:53 AM 69.8 °F 62.6 °F 78% 29.77 in 10.0 mi SSW 12.7 mph 25.3 mph N/A   Overcast
9:53 AM 71.1 °F 63.0 °F 75% 29.77 in 10.0 mi SSW 12.7 mph 21.9 mph N/A   Overcast
10:53 AM 71.1 °F 64.0 °F 78% 29.77 in 10.0 mi SW 12.7 mph - N/A   Overcast
11:36 AM 71.1 °F 64.0 °F 78% 29.77 in 10.0 mi SSW 9.2 mph 18.4 mph N/A Thunderstorm Thunderstorm
11:51 AM 71.6 °F 64.4 °F 78% 29.77 in 10.0 mi Variable 6.9 mph 18.4 mph N/A Thunderstorm Overcast
11:53 AM 72.0 °F 64.0 °F 76% 29.76 in 10.0 mi SSW 9.2 mph - N/A Thunderstorm Overcast
12:00 PM 73.0 °F 64.9 °F 76% 29.76 in 10.0 mi SSW 8.1 mph - N/A   Overcast
12:53 PM 75.0 °F 64.9 °F 71% 29.74 in 10.0 mi SW 13.8 mph 24.2 mph N/A   Overcast
1:45 PM 77.0 °F 66.0 °F 69% 29.75 in 10.0 mi SW 18.4 mph 29.9 mph N/A   Mostly Cloudy
1:53 PM 78.1 °F 66.0 °F 66% 29.75 in 10.0 mi SW 19.6 mph 29.9 mph N/A   Mostly Cloudy
2:05 PM 77.0 °F 66.0 °F 69% 29.76 in 10.0 mi SW 17.3 mph 34.5 mph N/A   Overcast
2:25 PM 75.9 °F 64.9 °F 69% 29.76 in 10.0 mi SW 15.0 mph 33.4 mph N/A   Overcast
2:53 PM 75.9 °F 64.9 °F 69% 29.73 in 10.0 mi SSW 15.0 mph 26.5 mph N/A   Mostly Cloudy
3:53 PM 75.0 °F 66.0 °F 73% 29.73 in 10.0 mi SSW 10.4 mph 19.6 mph 0.00 in   Mostly Cloudy
4:53 PM 75.0 °F 66.0 °F 73% 29.74 in 10.0 mi SW 12.7 mph - N/A   Scattered Clouds
5:53 PM 73.9 °F 66.9 °F 79% 29.71 in 10.0 mi South 8.1 mph - 0.00 in   Mostly Cloudy
6:53 PM 73.9 °F 66.0 °F 76% 29.73 in 10.0 mi Calm Calm - N/A   Clear
7:53 PM 70.0 °F 64.9 °F 84% 29.72 in 10.0 mi SE 6.9 mph - N/A   Clear
8:53 PM 73.0 °F 64.9 °F 76% 29.69 in 10.0 mi SSE 5.8 mph - N/A   Mostly Cloudy
10:53 PM 75.0 °F 62.1 °F 64% 29.65 in 10.0 mi SSW 8.1 mph 17.3 mph N/A   Mostly Cloudy
11:53 PM 73.9 °F 61.0 °F 64% 29.65 in 10.0 mi SSW 6.9 mph - N/A   Partly Cloudy